Wetbulb
53.68 54.08 54.52 55.07 55.32 55.06 53.61 52.00 50.02 48.97 46.30 44.33 44.14 43.77 42.82 41.64 40.13 35.92 31.34 33.77 32.93 26.16 24.27 26.76 26.33 23.12 22.43 23.01 19.80 20.27 19.65 19.58 18.60 15.55 15.21 14.35 13.00 13.91 11.16 11.43 10.94 10.85 9.61 9.29 8.05 4.33 1.43 14.85 14.34 7.80 10.83 14.25 14.20 14.05
53.46 53.53 53.56 54.19 54.68 54.62 53.30 51.53 50.06 48.35 45.78 44.11 43.33 43.54 42.96 41.52 40.28 37.31 30.85 32.94 33.61 27.78 24.42 27.01 25.83 26.19 26.86 26.20 23.68 20.42 19.71 18.73 20.47 17.14 14.32 14.38 12.87 10.50 10.00 10.21 12.70 9.13 12.39 12.30 11.20 12.53 14.23 16.37 14.64 16.71 15.53 13.36 14.19 13.71
53.03 53.22 53.19 53.52 54.12 54.34 53.08 51.26 49.55 47.75 44.77 43.62 43.23 43.54 42.60 41.71 40.07 36.77 32.38 32.03 32.12 26.36 25.61 26.15 23.50 26.77 28.33 26.41 27.79 22.38 21.95 21.52 20.11 19.96 18.08 16.29 12.83 15.38 11.21 11.94 11.25 11.38 10.65 11.88 10.85 12.85 14.03 15.10 15.98 16.13 16.12 14.62 15.33 15.01
52.20 52.59 52.89 53.21 53.64 53.77 52.26 50.72 48.58 46.88 44.69 44.16 43.70 43.40 42.47 41.31 39.19 36.30 32.94 32.08 32.26 28.38 22.77 21.66 28.12 24.50 26.64 28.44 26.95 26.07 23.84 22.80 21.87 21.78 18.29 17.05 15.18 17.54 14.48 12.96 12.81 13.03 11.50 9.96 11.21 14.17 15.11 14.52 15.73 15.43 15.08 15.47 14.66 14.82
51.50 51.95 52.37 52.43 52.97 52.95 51.16 49.80 47.88 45.92 44.38 44.09 43.40 42.74 41.40 40.10 38.51 34.33 32.68 31.60 31.91 30.93 20.69 20.19 24.49 24.77 25.43 27.02 26.36 26.41 25.21 23.43 22.05 19.10 18.06 15.94 18.55 16.26 13.42 12.98 12.14 12.69 11.20 11.57 11.18 11.86 11.04 12.59 15.08 15.83 13.47 13.12 13.53 12.47
51.06 51.48 51.69 51.69 52.55 52.03 50.37 48.61 46.79 44.90 43.91 43.67 42.42 41.81 40.46 39.35 36.06 33.47 28.25 32.59 31.43 31.94 24.19 17.75 23.56 21.91 23.51 25.38 24.79 24.24 24.47 23.05 23.16 21.55 19.20 19.02 17.81 16.52 12.75 12.02 11.88 11.30 10.64 10.21 12.85 12.12 13.11 14.50 15.29 15.28 13.41 13.23 13.25 13.45
50.50 51.10 51.27 51.29 52.00 51.15 49.24 47.82 45.64 44.57 43.24 42.46 41.68 40.64 39.02 37.74 34.17 29.79 29.04 31.39 31.82 31.52 23.47 16.83 17.70 20.96 21.48 22.48 22.57 22.96 23.45 24.07 24.24 20.62 19.35 18.30 17.03 15.80 13.02 11.34 13.74 14.19 14.61 14.36 14.35 12.01 11.07 12.98 11.77 14.27 13.95 13.26 13.73 12.94
49.97 50.70 50.47 51.06 51.62 50.03 48.16 46.50 45.04 43.59 42.84 41.79 41.08 39.48 38.58 37.70 35.09 28.61 29.39 32.12 30.09 25.18 24.33 16.34 14.94 17.59 20.57 17.83 17.71 20.82 20.42 23.11 22.34 20.49 18.27 16.81 14.92 15.07 10.93 13.66 13.29 13.77 13.54 13.27 13.37 13.93 12.86 13.79 13.85 13.35 13.33 12.54 10.70 10.84
49.43 50.16 50.49 50.94 50.86 48.56 46.89 45.76 44.11 42.90 42.28 41.01 39.77 38.15 33.51 30.58 27.61 27.71 32.25 29.89 26.94 26.31 17.13 16.31 14.36 13.25 18.84 15.98 17.30 18.24 17.89 17.13 20.20 17.32 16.88 17.25 14.08 11.07 14.65 12.90 13.11 12.92 11.57 11.44 12.54 12.71 12.64 11.50 11.37 11.65 10.97 10.37 9.00 9.84
48.99 49.26 49.92 50.57 48.78 47.20 45.56 44.91 43.34 42.21 41.00 39.25 33.11 29.10 24.84 28.08 34.05 32.02 25.80 23.63 20.89 18.87 17.91 13.14 14.35 11.88 15.43 14.34 12.69 13.78 12.47 12.48 11.86 13.64 15.40 14.04 13.74 14.35 14.40 14.20 13.77 12.57 11.59 10.24 7.53 9.14 9.01 8.48 9.00 9.02 9.07 10.28 10.47 10.55
48.82 49.28 49.74 49.16 47.23 45.53 44.82 43.96 42.83 40.92 36.89 30.84 27.20 23.42 28.28 31.58 26.32 22.86 16.78 17.99 14.72 14.06 13.23 10.66 11.98 11.79 15.90 12.44 11.16 10.01 9.53 8.55 8.51 10.83 10.90 10.65 10.78 14.23 14.92 14.17 14.41 13.49 12.35 10.54 9.75 9.67 9.28 8.76 7.62 7.50 8.86 10.74 11.72 11.19
48.18 49.18 49.06 47.11 45.40 44.63 43.92 43.27 40.31 33.14 30.81 30.98 28.52 28.55 26.06 22.96 20.72 17.74 11.46 11.32 12.48 12.44 9.69 12.98 12.78 13.83 13.13 14.69 11.86 6.75 7.87 7.58 6.81 10.55 9.38 7.85 13.88 15.25 14.36 14.19 13.83 12.50 10.73 9.89 8.79 7.08 7.82 8.67 9.52 9.60 10.74 10.95 10.60 10.71
48.12 49.22 47.36 45.45 44.42 43.97 42.52 40.40 37.02 36.83 33.02 29.20 25.61 21.63 21.67 17.60 15.05 13.75 9.86 9.83 9.77 10.51 10.96 12.40 10.86 12.59 11.46 10.64 4.56 7.15 7.44 7.19 8.62 6.83 8.09 12.00 14.46 15.69 14.28 13.05 13.01 12.92 11.69 11.12 10.50 10.72 10.25 10.44 11.63 10.86 9.87 11.06 10.55 9.37
47.98 47.36 45.44 44.19 43.59 42.59 40.01 38.72 37.86 34.12 29.92 24.33 20.67 13.82 16.58 12.91 15.48 15.82 16.01 14.54 13.43 13.76 12.57 11.73 9.22 11.31 9.21 6.99 3.07 6.97 3.37 3.84 3.57 2.89 6.93 13.87 14.08 14.13 13.03 12.54 10.94 11.65 10.71 9.32 8.53 8.38 9.03 9.17 8.36 9.95 9.98 9.43 7.52 6.58
47.68 45.10 43.97 42.58 41.84 39.22 39.53 38.36 34.69 29.15 26.01 20.04 21.65 13.78 12.96 11.82 11.62 12.35 13.38 12.81 11.88 13.68 12.23 9.63 8.61 9.97 4.77 3.42 2.35 3.24 2.57 3.52 5.90 7.88 12.99 15.58 13.49 10.76 10.89 11.03 10.52 10.52 8.91 6.83 5.19 5.09 5.93 5.95 6.17 7.66 8.71 7.74 8.37 8.36
44.71 43.25 39.96 41.06 40.26 39.72 38.04 33.34 29.34 26.56 20.72 17.87 15.18 10.83 12.79 12.11 10.02 11.72 11.94 10.58 12.22 10.65 11.10 10.97 5.62 5.23 2.14 2.83 3.90 4.58 4.11 3.49 9.91 11.75 15.48 12.77 10.37 9.98 9.75 9.37 7.78 6.18 4.58 5.41 5.08 2.86 4.45 2.82 3.34 7.02 7.10 8.55 8.65 8.84
41.09 35.92 40.58 40.76 39.82 36.77 34.12 26.87 24.47 18.67 17.39 14.55 12.07 17.31 15.95 16.08 12.96 12.35 13.47 11.19 10.98 13.40 10.59 6.84 4.99 3.07 0.12 1.92 3.13 4.12 6.30 12.51 13.47 13.82 13.71 12.64 12.98 12.41 9.54 7.51 5.39 3.75 3.24 3.12 3.08 3.71 4.19 5.52 3.62 7.85 8.26 10.52 10.58 11.78
34.93 38.16 40.23 38.60 33.54 29.35 23.01 23.97 20.13 16.55 11.00 14.63 13.97 13.18 13.51 14.61 12.47 10.64 8.26 8.73 12.72 9.07 7.86 7.51 1.73 1.22 4.08 3.56 5.90 10.63 10.40 11.67 11.74 14.43 15.11 12.22 9.73 8.06 8.22 10.20 7.90 5.43 6.07 4.86 4.15 5.47 6.63 7.55 9.37 11.29 9.99 11.47 11.71 12.78
37.18 37.93 36.81 35.65 31.35 24.98 20.53 18.58 19.86 11.11 11.53 13.26 13.66 13.81 12.70 11.15 10.64 10.12 9.02 7.07 7.01 8.49 5.42 4.67 5.20 5.83 7.75 8.76 12.57 11.73 11.23 12.90 15.49 14.10 12.50 6.38 6.76 7.65 7.27 8.25 8.31 7.25 7.26 8.35 9.88 10.96 11.62 10.51 11.08 12.06 12.18 12.56 12.18 12.53
39.60 37.01 35.75 34.14 30.12 21.96 16.44 15.32 21.33 15.47 12.53 13.00 14.03 11.30 10.24 9.68 10.21 10.11 10.07 11.18 9.94 7.39 5.29 4.98 8.81 11.05 10.98 12.72 12.36 15.29 14.81 13.12 13.58 13.90 14.74 14.16 10.65 8.06 10.22 12.59 13.62 14.06 13.85 13.23 12.34 14.83 12.90 12.16 13.00 12.39 12.29 13.46 12.14 10.83
34.49 32.71 29.03 24.17 19.37 15.71 13.98 14.41 12.66 14.11 13.44 10.26 11.70 10.29 7.28 9.07 7.88 7.11 7.36 10.21 7.07 5.31 6.54 7.43 8.66 9.99 5.08 4.63 5.82 10.09 10.06 11.42 14.77 16.57 16.48 14.84 14.58 13.56 13.73 14.14 13.85 13.76 12.70 12.14 11.26 11.52 13.56 11.92 12.21 11.94 11.74 11.54 11.78 12.52
30.15 31.14 24.39 24.39 16.68 14.50 11.37 11.71 12.57 12.34 8.99 8.50 8.05 8.45 5.94 6.32 5.00 3.85 1.39 2.53 3.68 8.34 7.26 7.47 7.75 8.17 5.57 5.90 8.19 5.87 12.48 11.33 11.80 12.97 17.16 17.15 15.58 14.10 13.90 14.61 13.67 13.53 13.13 12.81 12.68 12.05 12.19 12.87 12.55 12.76 12.29 11.65 11.91 10.95
29.90 26.65 22.84 21.29 15.39 13.88 8.83 11.45 10.01 10.51 10.35 6.62 4.24 4.95 0.63 0.08 -2.06 0.10 0.90 3.05 5.51 6.59 6.24 7.90 6.41 4.75 8.99 7.49 8.42 9.42 10.47 12.10 12.32 12.15 12.55 13.99 13.80 13.75 13.82 13.82 14.04 13.02 12.01 12.48 12.98 12.69 12.45 13.73 13.27 12.94 11.69 10.60 10.04 9.85
25.28 16.66 14.73 13.40 12.57 6.01 8.68 7.36 10.00 8.44 7.56 6.24 5.27 0.99 -2.15 -2.17 -4.26 -2.51 1.94 5.16 7.66 2.42 4.17 3.82 6.02 7.92 8.36 7.42 10.70 11.65 11.57 11.43 12.29 12.03 12.04 11.69 11.60 11.99 12.35 12.72 13.04 12.93 12.86 13.07 12.45 12.36 12.00 11.63 13.05 11.10 10.35 9.39 9.87 9.87
21.25 13.57 14.49 5.96 6.59 9.67 8.42 7.53 6.76 8.67 5.36 1.42 0.96 -3.33 -3.08 -6.20 -1.40 -2.92 1.61 7.11 5.49 5.30 5.56 3.41 6.40 9.71 12.62 11.21 9.10 10.24 11.53 12.05 11.15 10.68 11.38 10.72 11.25 9.79 10.52 10.50 11.41 12.07 12.43 11.76 10.97 11.11 11.21 11.28 10.91 10.20 9.94 9.95 10.08 10.92
11.08 8.01 8.44 9.16 8.94 11.09 10.55 7.73 6.34 5.29 2.36 -1.63 -3.54 -8.64 -8.78 -1.71 -3.84 0.86 4.18 6.52 5.37 5.06 4.09 6.54 8.02 7.31 7.81 9.31 10.31 9.99 12.03 10.67 10.47 10.39 10.69 9.27 9.35 10.28 9.23 8.44 8.28 9.53 11.36 11.92 11.15 10.34 10.55 10.77 10.12 9.16 9.61 10.67 13.11 11.08
7.46 5.97 9.62 12.21 11.31 9.52 7.37 6.55 5.79 5.24 0.65 0.54 -3.87 -7.77 -3.67 -5.61 -1.72 5.00 6.32 5.00 7.71 5.67 6.16 7.94 10.14 10.76 10.85 8.70 8.61 7.97 7.00 8.01 8.86 9.10 7.56 7.78 8.45 8.68 9.95 7.95 5.94 9.60 11.83 11.31 11.18 10.52 9.89 10.03 9.77 9.89 10.09 10.80 10.96 10.05
10.17 11.18 9.97 8.16 6.77 5.91 4.94 2.47 1.14 1.38 0.69 0.56 1.59 -4.78 1.72 4.49 7.67 6.89 5.66 0.63 -0.52 -1.08 -0.44 0.64 2.83 6.53 8.31 7.08 7.06 6.20 3.76 1.75 0.88 2.21 4.72 4.77 3.54 4.35 4.93 7.59 7.77 13.12 11.34 10.94 11.08 11.07 10.69 10.54 10.37 10.11 10.29 9.93 9.78 9.30
8.95 9.13 9.04 1.69 0.29 1.20 -2.53 0.91 1.37 1.74 4.02 5.27 3.18 2.43 2.74 4.08 1.78 2.40 2.58 -0.37 -4.08 -0.38 3.32 4.43 0.54 -1.40 -0.35 -0.79 -1.17 -0.68 2.22 4.92 4.88 0.03 0.55 5.26 4.52 5.97 3.82 3.70 3.54 4.01 5.21 7.15 13.30 15.63 11.89 11.31 11.14 11.50 10.10 9.06 8.47 7.73
2.66 5.23 3.66 -0.65 1.42 -2.16 -6.12 -5.07 -3.58 -3.02 0.06 0.18 0.15 2.66 3.82 2.66 -0.49 -2.52 -2.13 -3.09 -0.16 2.08 0.08 -0.56 -0.85 1.24 1.84 3.62 1.72 0.63 -1.47 -0.53 2.47 4.92 3.14 3.40 4.38 3.79 1.57 1.77 2.92 3.15 3.65 5.52 7.63 8.49 13.51 11.42 11.77 8.85 8.12 7.69 7.15 7.03
2.98 2.60 -1.65 -1.37 -5.34 -6.01 -7.05 -7.62 -7.10 -2.87 -5.43 -5.58 -7.63 -2.05 0.71 -3.30 -0.40 -3.39 -3.44 -4.81 -7.07 -8.96 -3.46 -4.99 -8.93 -9.02 -1.80 -2.58 -0.31 0.11 1.54 0.04 -4.56 -3.99 -2.80 -1.17 -1.44 -0.30 0.73 0.94 2.16 3.36 5.12 5.75 7.10 7.05 7.45 7.55 7.49 6.82 6.49 5.94 5.78 6.49
-0.89 -6.58 -0.36 -0.24 -3.61 -6.78 -9.17 -8.14 -8.29 -5.90 -7.36 -4.27 -4.58 -10.37 -5.26 -2.75 0.62 -1.24 -6.58 -9.20 -8.46 -5.17 3.24 -1.57 -1.74 0.41 -2.38 -3.11 -3.28 -2.32 8.58 -0.43 -1.81 -2.56 -3.33 -0.53 0.85 2.14 2.65 2.47 2.52 4.61 5.89 6.47 7.10 7.06 6.58 6.28 6.39 6.39 6.24 6.05 5.64 4.36
-10.93 -10.85 -9.28 -5.70 -5.54 -5.27 -6.81 -5.61 -6.31 -6.25 -7.25 -10.00 -8.93 -15.20 -15.80 -6.57 0.97 -0.22 -8.52 -10.15 -4.70 -2.90 -2.15 -1.99 -4.52 -5.05 -5.14 -3.80 -3.39 -2.56 3.43 -4.24 -2.71 9.91 12.42 14.30 15.53 13.10 10.10 8.34 8.13 6.79 5.32 5.37 7.37 7.27 6.32 5.35 5.95 6.11 5.88 4.56 4.13 3.44
MSLP
1019.05 1019.26 1019.17 1019.31 1019.40 1019.52 1019.80 1020.38 1021.30 1022.03 1022.64 1023.05 1023.70 1023.49 1024.28 1024.63 1024.61 1025.52 1027.67 1027.42 1027.47 1030.04 1031.80 1031.82 1032.12 1032.54 1033.02 1033.20 1033.38 1034.21 1034.64 1034.85 1034.98 1035.04 1034.87 1035.10 1035.28 1035.47 1035.49 1035.47 1035.72 1035.87 1035.84 1035.72 1036.13 1036.31 1036.32 1036.95 1037.30 1037.99 1038.05 1037.96 1038.01 1037.79
1018.26 1018.66 1018.55 1018.85 1018.89 1018.97 1019.33 1019.81 1020.63 1021.52 1022.15 1022.57 1022.98 1023.24 1023.94 1024.47 1024.67 1025.21 1027.38 1027.88 1027.91 1029.48 1032.23 1032.55 1032.84 1033.23 1033.06 1033.03 1033.61 1034.49 1034.58 1034.98 1034.95 1035.17 1035.68 1035.82 1035.68 1036.31 1036.03 1035.59 1036.62 1036.98 1037.00 1036.78 1036.64 1035.80 1036.65 1037.21 1037.55 1037.87 1038.35 1038.34 1038.03 1037.98
1017.57 1017.66 1017.75 1018.16 1018.29 1018.43 1018.70 1019.52 1020.33 1021.30 1021.83 1022.34 1022.86 1023.03 1023.76 1024.19 1024.65 1025.17 1027.34 1028.06 1028.17 1030.67 1032.51 1032.79 1033.33 1033.49 1033.26 1033.60 1033.65 1033.74 1034.68 1035.12 1035.46 1035.73 1035.80 1036.17 1036.16 1036.26 1035.92 1036.00 1036.65 1037.40 1038.01 1037.55 1037.25 1036.84 1036.92 1037.35 1037.82 1038.22 1038.43 1038.37 1038.23 1038.12
1016.89 1017.19 1016.94 1017.53 1017.73 1017.37 1018.22 1018.97 1019.98 1020.93 1021.54 1022.19 1022.75 1023.12 1023.73 1024.42 1025.09 1025.57 1027.01 1028.15 1027.99 1029.57 1031.57 1033.43 1033.45 1033.80 1033.80 1033.54 1033.53 1033.76 1034.25 1035.24 1035.74 1035.85 1035.80 1036.01 1036.25 1036.61 1036.54 1036.97 1037.30 1037.73 1038.15 1037.96 1037.47 1037.17 1037.35 1037.69 1038.08 1038.44 1038.46 1038.45 1038.30 1038.05
1016.08 1016.35 1016.36 1016.63 1016.84 1016.76 1017.67 1018.59 1019.74 1020.81 1021.40 1022.11 1022.70 1023.39 1024.20 1024.91 1025.58 1026.35 1027.27 1028.23 1027.87 1028.34 1031.37 1033.29 1033.81 1034.21 1034.12 1034.00 1033.97 1034.31 1034.56 1035.11 1035.56 1035.81 1035.84 1036.10 1036.50 1036.93 1037.23 1037.54 1037.44 1037.76 1037.96 1038.14 1037.70 1038.18 1038.56 1038.34 1038.54 1038.66 1038.59 1038.48 1038.35 1038.15
1015.40 1015.49 1015.67 1015.71 1016.06 1016.29 1017.10 1018.30 1019.54 1020.69 1021.35 1022.05 1023.04 1023.63 1024.49 1025.37 1026.03 1026.19 1028.04 1028.35 1028.11 1028.16 1030.54 1033.47 1034.46 1034.40 1034.55 1034.44 1034.63 1034.72 1035.18 1035.30 1035.45 1035.55 1035.96 1036.48 1036.95 1037.05 1036.99 1037.01 1037.40 1037.75 1038.32 1038.65 1038.69 1039.01 1039.03 1038.81 1038.80 1038.82 1038.82 1038.62 1038.35 1038.02
1014.41 1014.78 1014.86 1014.91 1015.46 1015.80 1016.72 1017.88 1019.40 1020.75 1021.44 1022.09 1023.35 1024.33 1024.94 1025.59 1026.44 1027.33 1028.04 1028.05 1028.14 1028.22 1030.44 1033.85 1034.48 1034.88 1034.98 1034.84 1035.27 1035.45 1035.56 1035.41 1035.40 1035.72 1035.98 1036.64 1037.03 1037.41 1037.23 1036.92 1037.22 1037.63 1038.12 1038.59 1039.00 1039.44 1038.96 1038.89 1038.93 1039.02 1038.87 1038.64 1038.39 1038.01
1013.57 1013.87 1013.97 1014.44 1014.81 1015.40 1016.54 1017.94 1019.57 1020.77 1021.84 1022.73 1023.90 1024.95 1025.36 1026.08 1027.38 1027.64 1028.50 1028.25 1028.44 1028.98 1030.52 1033.28 1034.91 1035.53 1035.42 1035.15 1035.76 1035.90 1035.62 1035.44 1035.82 1035.96 1036.53 1036.65 1037.37 1037.29 1037.02 1036.99 1037.41 1037.78 1038.29 1038.59 1038.89 1039.33 1039.41 1039.30 1039.16 1038.97 1038.89 1038.59 1038.24 1037.74
1012.75 1013.04 1013.49 1013.87 1014.14 1015.26 1016.73 1018.01 1019.47 1020.67 1021.86 1023.16 1024.26 1025.36 1026.15 1027.21 1028.17 1028.44 1028.36 1028.38 1028.92 1029.73 1031.51 1033.54 1034.50 1035.69 1035.76 1035.98 1036.52 1036.49 1036.27 1035.99 1036.62 1036.58 1036.71 1036.96 1036.90 1036.75 1036.46 1037.06 1037.54 1037.92 1038.55 1038.87 1039.13 1039.30 1039.28 1039.31 1039.11 1038.94 1038.83 1038.56 1038.30 1037.73
1011.96 1012.46 1012.81 1013.21 1014.01 1015.34 1016.57 1018.28 1019.46 1020.64 1022.19 1023.41 1024.79 1025.96 1027.62 1028.83 1028.88 1028.65 1028.62 1029.05 1030.13 1031.73 1032.47 1034.45 1035.55 1036.21 1036.47 1036.69 1037.32 1037.39 1037.20 1037.38 1037.27 1037.63 1037.29 1036.80 1036.22 1036.34 1036.76 1037.19 1037.67 1038.20 1038.73 1039.18 1039.41 1039.29 1039.48 1039.42 1039.26 1038.99 1038.77 1038.53 1038.22 1037.78
1011.38 1011.78 1012.02 1012.80 1013.90 1015.53 1016.77 1018.49 1019.61 1021.12 1022.87 1023.89 1025.40 1027.59 1028.67 1029.29 1029.37 1029.14 1029.99 1030.66 1032.37 1033.61 1034.19 1035.62 1036.07 1036.21 1037.22 1037.14 1037.79 1038.59 1038.20 1038.47 1038.12 1038.00 1037.25 1036.63 1035.97 1036.15 1036.75 1037.28 1037.78 1038.26 1038.71 1039.06 1039.40 1039.61 1039.74 1039.63 1039.33 1039.00 1038.57 1038.31 1037.99 1037.67
1011.01 1011.35 1011.38 1012.65 1014.26 1015.32 1017.18 1018.30 1019.55 1020.74 1022.62 1023.51 1024.87 1027.25 1028.70 1029.38 1029.86 1030.01 1031.18 1032.66 1033.20 1034.02 1035.29 1035.87 1036.37 1036.56 1037.63 1037.81 1038.19 1039.21 1039.04 1038.98 1038.52 1038.25 1037.25 1036.19 1035.46 1036.08 1036.82 1037.34 1037.79 1038.24 1038.62 1038.96 1039.29 1039.45 1039.46 1039.34 1039.14 1038.83 1038.41 1038.07 1037.88 1037.63
1010.25 1010.46 1011.12 1012.80 1014.47 1015.46 1017.23 1018.67 1020.27 1020.78 1022.25 1024.07 1025.17 1027.31 1028.13 1029.70 1029.98 1030.38 1031.42 1032.56 1033.20 1033.94 1035.02 1035.78 1036.76 1037.04 1037.99 1038.55 1039.20 1039.21 1039.32 1039.21 1039.15 1038.00 1036.66 1035.70 1035.70 1036.09 1036.74 1037.42 1037.84 1038.17 1038.55 1038.87 1039.09 1039.21 1039.20 1038.97 1038.76 1038.57 1038.24 1037.96 1037.75 1037.43
1009.79 1010.12 1011.36 1013.62 1015.04 1016.19 1018.00 1019.20 1020.36 1021.03 1022.12 1023.80 1025.77 1027.67 1028.00 1029.45 1029.42 1029.44 1030.15 1030.94 1032.30 1033.14 1034.32 1035.73 1036.92 1037.45 1038.20 1038.73 1039.32 1039.26 1039.94 1039.49 1038.42 1037.36 1035.98 1035.44 1035.83 1036.28 1036.93 1037.47 1037.92 1038.12 1038.56 1038.88 1039.07 1039.14 1039.05 1038.87 1038.63 1038.38 1038.13 1037.91 1037.68 1037.28
1009.05 1010.34 1012.08 1014.09 1015.14 1016.77 1018.13 1019.59 1021.02 1022.19 1022.50 1024.92 1025.74 1027.38 1028.67 1029.36 1030.12 1030.58 1030.90 1031.64 1032.97 1033.71 1034.52 1036.12 1037.12 1037.33 1038.41 1039.00 1039.45 1039.46 1039.60 1038.27 1037.10 1035.71 1035.04 1035.29 1035.80 1036.60 1037.11 1037.53 1037.84 1038.22 1038.59 1038.88 1039.05 1039.14 1038.96 1038.80 1038.56 1038.16 1037.84 1037.59 1037.30 1036.93
1009.62 1011.89 1013.08 1014.52 1016.14 1017.39 1018.84 1020.53 1021.61 1022.69 1024.69 1026.07 1027.42 1028.51 1029.27 1029.87 1030.82 1031.12 1031.69 1032.55 1033.59 1034.11 1034.99 1035.85 1036.95 1037.58 1038.75 1038.88 1038.95 1038.49 1037.74 1036.32 1035.15 1034.96 1034.95 1035.55 1036.09 1036.63 1037.22 1037.49 1037.79 1038.24 1038.65 1038.82 1038.93 1038.97 1038.72 1038.56 1038.30 1037.85 1037.49 1037.11 1036.78 1036.45
1010.22 1012.34 1014.15 1015.23 1016.80 1018.60 1020.28 1021.42 1023.07 1024.48 1025.80 1027.35 1028.35 1028.14 1028.96 1029.33 1030.24 1031.37 1031.96 1033.24 1034.11 1034.18 1035.18 1036.04 1036.90 1038.10 1038.78 1038.33 1038.11 1037.62 1035.86 1034.50 1034.32 1034.60 1034.99 1035.45 1036.02 1036.49 1036.95 1037.34 1037.72 1038.14 1038.47 1038.61 1038.60 1038.39 1038.20 1037.92 1037.72 1037.40 1036.94 1036.50 1036.19 1035.78
1011.38 1013.34 1014.36 1016.09 1017.93 1019.87 1021.74 1022.79 1024.21 1025.68 1027.56 1028.57 1028.79 1029.55 1030.07 1030.47 1031.41 1032.32 1033.17 1034.11 1034.24 1034.66 1035.39 1035.83 1036.33 1037.33 1037.04 1036.43 1035.72 1034.72 1034.30 1034.29 1034.60 1034.70 1034.77 1035.37 1035.96 1036.40 1036.79 1037.08 1037.34 1037.71 1037.83 1037.88 1037.86 1037.69 1037.53 1037.35 1037.01 1036.61 1036.40 1036.04 1035.68 1035.25
1011.50 1013.48 1015.41 1016.88 1017.97 1019.42 1022.53 1024.78 1025.04 1027.00 1028.76 1029.36 1029.90 1030.37 1031.06 1031.86 1032.92 1033.27 1033.80 1034.64 1034.79 1035.00 1035.49 1035.71 1035.71 1035.65 1034.96 1034.37 1033.76 1033.72 1033.90 1034.08 1034.12 1034.42 1034.63 1035.09 1035.79 1036.12 1036.40 1036.64 1036.86 1037.08 1037.08 1037.04 1036.90 1036.71 1036.57 1036.51 1036.35 1036.14 1035.91 1035.66 1035.27 1035.00
1012.63 1014.70 1016.53 1017.64 1018.32 1020.44 1023.63 1025.72 1025.88 1027.25 1028.93 1029.74 1030.41 1031.51 1032.34 1033.06 1033.90 1034.34 1034.82 1035.02 1035.17 1035.47 1035.54 1035.37 1034.34 1033.42 1033.17 1032.99 1033.08 1033.10 1033.34 1033.63 1033.78 1034.08 1034.26 1034.57 1035.04 1035.61 1035.66 1035.73 1035.79 1035.86 1035.96 1036.03 1036.07 1035.88 1035.87 1035.78 1035.68 1035.60 1035.48 1035.22 1035.01 1034.81
1014.82 1016.76 1017.89 1018.42 1020.59 1022.66 1025.32 1026.71 1027.41 1028.24 1029.20 1030.32 1031.59 1032.30 1033.49 1034.14 1034.84 1035.34 1035.57 1035.60 1035.80 1035.40 1034.48 1033.63 1033.07 1032.69 1032.84 1033.02 1033.36 1033.36 1033.30 1033.35 1033.26 1033.27 1033.57 1033.91 1034.30 1034.70 1034.89 1035.05 1035.23 1035.35 1035.40 1035.37 1035.39 1035.32 1035.23 1035.20 1035.19 1035.22 1035.20 1035.06 1034.93 1034.68
1015.49 1017.11 1018.16 1019.48 1022.02 1024.25 1026.23 1027.44 1027.82 1028.85 1029.97 1031.25 1031.93 1032.87 1034.20 1035.14 1035.83 1036.58 1036.73 1036.29 1035.32 1033.42 1033.03 1032.68 1032.68 1032.64 1033.03 1033.33 1033.32 1033.43 1032.96 1033.19 1033.30 1033.43 1033.42 1033.62 1033.93 1034.30 1034.37 1034.43 1034.67 1034.68 1034.73 1034.77 1034.82 1034.80 1034.78 1034.80 1034.85 1034.86 1034.87 1034.80 1034.74 1034.56
1015.79 1016.74 1018.60 1020.28 1022.66 1024.88 1028.16 1028.48 1028.43 1029.11 1030.32 1031.85 1032.86 1033.86 1035.40 1036.19 1036.89 1037.25 1036.66 1035.18 1033.51 1032.09 1032.24 1032.64 1032.42 1032.60 1032.69 1032.87 1033.02 1033.06 1033.02 1033.00 1033.14 1033.23 1033.40 1033.55 1033.72 1033.88 1033.97 1034.05 1034.19 1034.29 1034.32 1034.28 1034.39 1034.41 1034.46 1034.43 1034.50 1034.51 1034.67 1034.70 1034.60 1034.40
1016.62 1018.76 1020.59 1021.96 1023.69 1027.02 1028.21 1028.52 1028.69 1029.47 1030.74 1031.92 1032.99 1034.75 1036.15 1036.77 1037.19 1036.83 1035.66 1033.65 1031.87 1032.21 1032.49 1032.28 1032.46 1032.72 1032.85 1033.03 1032.88 1032.51 1032.58 1032.85 1032.97 1033.19 1033.34 1033.57 1033.59 1033.54 1033.69 1033.73 1033.84 1033.94 1034.03 1034.05 1034.15 1034.21 1034.30 1034.37 1034.34 1034.51 1034.52 1034.50 1034.38 1034.22
1017.46 1021.56 1022.39 1024.31 1025.23 1026.08 1027.21 1028.14 1028.76 1029.28 1030.82 1032.36 1033.54 1035.25 1036.32 1036.77 1036.42 1035.87 1034.34 1032.01 1031.56 1031.59 1031.70 1032.03 1032.18 1032.06 1032.18 1032.16 1032.24 1032.14 1032.22 1032.46 1032.78 1033.09 1033.04 1033.32 1033.44 1033.68 1033.71 1033.74 1033.72 1033.74 1033.86 1033.91 1033.96 1034.02 1034.09 1034.20 1034.28 1034.34 1034.35 1034.27 1034.06 1033.88
1019.97 1022.90 1023.55 1023.94 1024.90 1025.21 1026.30 1027.28 1027.99 1029.22 1030.64 1032.37 1033.82 1035.28 1035.72 1035.67 1035.29 1033.88 1032.00 1030.65 1030.77 1030.75 1031.16 1031.15 1031.30 1032.08 1032.13 1031.85 1031.92 1032.06 1032.16 1032.44 1032.84 1033.19 1033.23 1033.33 1033.54 1033.65 1033.74 1033.88 1033.91 1033.89 1033.90 1033.90 1033.93 1033.96 1033.97 1034.02 1034.08 1034.16 1034.15 1034.04 1033.83 1033.78
1021.53 1023.21 1023.86 1024.15 1024.49 1025.14 1026.44 1027.39 1028.24 1028.82 1030.12 1031.41 1032.94 1034.39 1034.47 1034.12 1032.90 1031.24 1030.21 1030.26 1030.45 1030.62 1030.54 1030.72 1031.11 1031.23 1031.13 1031.49 1031.95 1032.25 1032.60 1032.82 1033.08 1033.32 1033.49 1033.70 1033.89 1033.93 1033.94 1034.07 1034.05 1034.00 1033.98 1033.97 1033.95 1033.92 1033.88 1033.84 1033.86 1033.90 1033.91 1033.83 1033.76 1033.73
1022.63 1023.42 1024.05 1025.10 1025.39 1025.94 1027.03 1028.13 1028.77 1029.09 1029.69 1030.37 1031.25 1032.28 1031.88 1031.11 1030.60 1030.19 1030.45 1030.92 1031.07 1030.90 1031.35 1031.92 1031.75 1031.47 1031.62 1031.86 1032.06 1032.59 1033.23 1033.49 1033.67 1033.79 1033.91 1034.19 1034.48 1034.42 1034.38 1034.19 1034.25 1033.70 1033.88 1033.87 1033.65 1033.54 1033.54 1033.50 1033.50 1033.58 1033.67 1033.68 1033.66 1033.68
1023.93 1024.44 1024.74 1026.31 1026.86 1027.58 1028.60 1029.19 1029.46 1029.70 1029.77 1029.91 1030.12 1030.49 1030.09 1030.03 1030.37 1030.66 1031.03 1031.36 1031.67 1031.90 1032.30 1032.25 1032.67 1032.63 1032.68 1032.82 1033.01 1033.18 1033.28 1033.49 1033.90 1034.27 1034.20 1034.39 1034.50 1034.51 1034.51 1034.57 1034.59 1034.52 1034.39 1034.07 1033.24 1032.77 1032.90 1032.93 1032.83 1033.14 1033.50 1033.68 1033.69 1033.66
1025.36 1025.59 1025.99 1027.19 1028.32 1029.81 1030.75 1030.98 1030.89 1030.92 1030.77 1030.67 1030.66 1030.44 1030.36 1030.50 1030.87 1031.34 1031.53 1031.97 1032.37 1032.41 1032.28 1032.24 1032.49 1032.70 1032.96 1033.12 1033.48 1033.69 1033.75 1033.75 1033.78 1033.96 1034.17 1034.33 1034.22 1034.24 1034.39 1034.50 1034.46 1034.39 1034.36 1034.05 1033.68 1033.44 1032.89 1033.04 1032.97 1033.22 1033.51 1033.63 1033.62 1033.54
1026.24 1026.47 1027.33 1028.57 1030.16 1031.22 1031.79 1031.98 1031.84 1031.64 1031.62 1031.51 1031.61 1031.30 1031.31 1031.33 1031.11 1031.65 1031.98 1032.31 1032.52 1032.48 1032.54 1032.93 1033.12 1032.96 1033.05 1033.42 1033.49 1033.46 1033.62 1033.60 1033.71 1033.89 1034.02 1034.09 1034.12 1034.16 1034.18 1034.32 1034.25 1034.18 1034.02 1033.83 1033.66 1033.51 1033.34 1033.28 1033.30 1033.33 1033.45 1033.53 1033.52 1033.52
1027.37 1028.13 1028.37 1029.88 1031.29 1032.03 1032.43 1032.47 1032.44 1031.99 1032.14 1031.90 1032.30 1032.11 1032.04 1032.20 1032.12 1031.96 1032.20 1032.72 1032.86 1032.93 1032.46 1032.58 1032.72 1032.68 1032.82 1032.89 1032.95 1033.00 1032.98 1033.10 1033.48 1033.87 1034.10 1034.20 1034.00 1033.77 1033.69 1033.66 1033.70 1033.62 1033.47 1033.36 1033.28 1033.22 1033.19 1033.19 1033.17 1033.20 1033.26 1033.34 1033.39 1033.43
1028.97 1029.22 1029.68 1030.47 1031.69 1032.20 1032.29 1032.09 1032.33 1032.38 1032.21 1032.77 1033.12 1033.54 1033.94 1033.44 1032.56 1031.78 1032.33 1032.65 1032.54 1032.26 1032.28 1032.24 1032.26 1032.46 1032.59 1032.81 1033.11 1033.24 1032.81 1033.59 1033.64 1032.92 1032.80 1032.51 1032.37 1032.19 1032.40 1032.58 1032.69 1032.88 1032.86 1032.82 1032.78 1032.79 1032.84 1032.90 1032.91 1032.96 1033.04 1033.18 1033.29 1033.38
Wind_Speed
13 14 13 13 13 19 23 24 24 22 19 16 11 14 13 10 8 5 3 4 3 5 4 2 2 4 3 2 3 5 3 2 2 4 3 1 3 1 3 1 2 4 4 3 2 5 5 2 2 5 5 8 13 13
15 14 12 14 14 17 23 24 24 23 21 19 16 13 12 13 12 6 4 3 7 7 5 4 6 4 3 2 4 2 2 2 2 3 2 2 3 2 1 2 2 4 3 1 4 2 2 1 5 5 4 11 11 13
16 15 13 14 16 17 22 24 25 23 23 20 19 17 14 13 7 8 5 3 5 6 4 2 5 5 6 5 2 3 2 4 3 2 3 1 4 2 3 3 3 4 3 3 4 3 2 8 2 2 9 12 12 13
15 15 14 15 15 14 23 25 27 26 24 22 18 17 14 15 15 10 4 1 3 6 5 3 1 3 4 3 4 3 6 5 5 1 2 2 2 3 1 2 4 2 6 2 5 5 7 0 3 7 12 10 13 14
15 14 14 13 14 16 26 27 27 26 24 22 20 19 19 20 21 11 5 2 2 2 5 5 3 2 5 3 8 7 7 5 2 2 2 2 1 3 1 1 4 5 3 2 3 2 4 9 8 12 10 13 13 13
17 15 14 13 12 20 27 28 28 26 26 23 22 23 24 22 10 3 3 2 2 2 7 4 2 3 5 6 7 6 2 2 1 1 2 2 2 2 3 3 2 4 4 3 3 1 7 13 11 6 11 13 12 13
17 16 15 13 13 25 30 30 29 28 28 27 26 25 19 14 5 4 2 3 3 2 6 5 3 3 3 2 3 2 1 1 1 2 2 2 2 1 1 3 5 4 2 4 6 4 7 3 7 11 11 11 12 12
18 16 17 13 15 28 30 32 32 29 28 29 26 20 18 22 14 5 5 4 2 6 4 5 3 3 4 3 2 2 1 1 2 2 2 1 2 1 3 3 3 1 3 5 4 6 8 11 10 9 8 9 11 10
18 14 15 13 20 31 33 34 34 33 33 28 28 21 5 6 2 2 8 9 4 4 5 2 6 4 2 3 1 1 2 2 2 1 1 2 2 4 2 4 3 2 3 3 4 7 7 6 9 9 9 9 10 11
16 15 16 15 30 34 36 35 37 36 34 30 5 3 3 3 8 5 3 3 5 5 5 4 1 3 1 1 2 1 2 2 2 1 2 2 3 1 4 4 2 3 4 3 3 4 5 8 8 10 10 9 9 10
16 15 14 26 34 36 37 37 38 38 22 2 4 4 3 2 1 3 3 3 2 2 3 2 1 5 2 2 3 2 2 1 2 2 2 1 3 2 4 4 4 4 5 5 6 6 7 9 9 10 10 9 9 10
17 16 22 34 37 40 39 39 39 9 4 7 10 8 3 2 2 4 2 1 1 3 3 3 3 3 3 1 2 1 2 1 2 1 1 3 2 3 4 4 4 4 4 4 4 6 7 8 7 8 9 9 9 9
14 15 33 38 40 41 40 38 23 29 21 3 5 5 3 0 3 7 8 3 3 6 6 5 4 3 3 3 4 2 2 1 1 1 3 3 2 3 3 3 3 3 4 4 5 5 6 7 7 6 8 8 8 8
15 30 39 39 38 39 34 31 31 21 4 4 5 6 4 4 4 3 3 5 4 6 8 6 5 2 2 3 1 3 2 2 1 2 4 2 5 2 3 3 3 3 3 4 5 5 6 6 6 7 6 6 6 7
24 39 41 40 41 40 38 32 20 1 4 5 2 4 4 4 4 3 6 6 4 7 6 5 4 2 3 4 2 4 2 3 4 4 2 3 3 3 3 3 4 4 3 4 3 4 5 5 5 7 5 6 6 6
41 39 25 42 41 39 32 17 4 3 5 4 4 5 5 5 3 2 4 6 3 5 4 3 4 4 2 2 3 4 5 6 3 3 2 2 3 3 4 4 4 3 3 4 4 4 4 5 5 6 7 5 5 5
29 7 37 40 39 31 19 5 3 6 5 4 2 5 1 4 5 4 3 4 3 3 3 3 5 3 4 3 3 5 6 3 3 3 3 4 3 3 4 3 4 4 5 5 3 4 4 4 4 5 5 5 6 5
14 28 41 40 26 10 4 5 4 5 6 3 3 3 3 4 6 5 4 4 3 3 4 3 7 4 5 6 4 5 5 2 3 3 2 2 3 4 4 5 3 5 5 5 5 4 3 4 5 4 5 6 6 4
29 27 41 36 12 7 5 3 3 6 4 3 4 4 4 5 6 6 6 3 3 3 6 2 3 4 4 4 4 2 2 3 3 2 2 3 4 4 4 4 5 5 5 4 4 4 3 4 5 4 4 4 4 5
43 43 35 18 7 5 7 4 2 5 3 3 4 4 4 5 3 5 4 2 3 2 2 3 5 4 5 4 5 3 3 4 4 2 2 2 3 5 6 5 5 4 4 4 4 6 3 4 3 3 3 4 4 4
30 17 10 5 6 8 6 2 5 3 5 5 4 2 4 2 3 2 2 2 1 3 4 4 4 3 2 1 0 2 4 5 5 3 2 2 3 4 4 4 4 3 3 3 3 4 4 3 3 2 3 3 4 4
10 13 4 4 6 5 6 5 4 3 5 3 3 2 4 3 3 1 1 1 4 4 4 3 3 4 3 4 5 6 3 5 3 2 4 3 3 3 4 4 3 4 4 4 3 4 3 2 2 3 2 3 4 4
15 5 5 4 7 6 3 2 3 2 5 4 1 4 2 2 1 0 3 4 5 3 2 4 2 2 2 2 2 3 5 5 4 5 4 4 4 4 4 4 4 4 4 3 3 3 3 3 2 1 2 3 3 4
6 7 5 5 6 5 2 2 2 4 4 2 3 4 3 2 1 1 4 4 3 1 4 4 3 3 2 1 4 3 4 5 3 2 3 3 4 4 3 3 2 3 4 2 2 2 2 2 2 1 2 3 4 4
7 6 4 5 2 6 5 4 3 3 4 2 4 2 3 2 3 3 4 4 2 3 3 4 4 2 2 2 1 2 3 4 4 4 2 5 2 0 2 2 2 2 1 2 3 3 2 2 2 2 3 3 5 5
7 2 3 4 3 4 5 6 5 6 5 4 2 2 2 3 3 6 5 4 4 4 5 7 6 4 4 4 3 2 2 3 3 2 1 2 3 2 1 1 1 0 0 1 1 2 3 2 2 3 4 5 8 6
6 1 2 1 3 5 5 4 3 3 5 7 6 5 4 4 7 6 2 2 2 2 2 2 4 4 3 3 2 2 2 3 2 2 2 2 1 1 2 2 3 1 1 1 1 3 3 3 3 3 4 4 4 4
3 2 6 3 3 2 6 3 5 6 5 4 7 5 11 9 6 3 2 1 1 3 4 2 2 2 3 3 3 5 4 3 3 3 2 2 1 1 2 2 2 7 1 2 3 3 4 4 4 4 5 5 4 3
3 1 3 4 3 4 2 2 3 1 1 4 4 4 4 2 1 1 1 2 3 3 3 4 3 2 4 4 3 2 3 4 4 3 1 2 2 1 1 0 1 1 1 2 5 4 6 6 5 5 2 2 2 3
1 1 4 3 4 2 1 1 0 1 1 1 1 0 1 1 0 0 2 3 3 3 3 2 3 3 3 4 3 1 1 2 2 3 3 3 3 1 2 2 2 1 1 2 2 3 5 3 3 2 0 1 1 2
1 2 5 4 3 1 1 1 2 1 2 2 2 2 1 2 2 0 1 2 3 3 4 3 2 2 4 4 3 3 2 3 4 4 2 2 2 2 3 3 3 2 2 3 3 2 2 1 1 2 2 2 4 3
3 3 4 5 2 0 1 1 1 2 4 3 4 3 4 2 1 3 3 4 3 2 6 4 4 4 5 2 2 1 2 3 4 4 6 3 3 4 4 3 3 3 3 4 3 3 3 4 3 3 3 3 3 3
3 2 3 5 3 0 1 2 4 2 4 3 3 1 1 1 4 3 0 2 2 3 4 4 3 2 4 5 4 3 3 2 3 6 9 9 10 9 4 3 2 3 4 3 3 3 5 5 4 4 4 4 3 3
Wind_Direction
245 260 262 263 246 216 197 187 185 178 165 163 160 133 127 125 106 88 86 18 95 92 69 36 75 138 129 180 167 123 156 158 143 206 232 199 240 151 244 67 216 227 215 193 167 248 268 126 251 266 359 320 323 321
235 245 260 260 249 223 200 184 180 172 164 160 152 144 146 136 121 118 100 74 67 75 89 78 86 50 13 68 128 148 30 140 145 125 205 160 195 197 292 242 161 231 285 360 237 319 84 284 290 301 322 317 318 317
235 233 237 255 251 231 196 179 174 172 161 160 159 149 145 136 121 115 109 140 86 103 93 101 58 39 46 28 324 137 163 136 164 16 127 91 238 201 217 211 181 185 174 239 298 113 305 312 279 187 329 319 320 317
235 231 226 232 240 224 186 173 171 167 164 163 160 150 135 123 120 105 108 167 95 107 113 129 148 46 344 19 67 58 118 99 103 196 107 143 246 230 237 35 267 39 166 199 256 281 311 13 219 323 321 314 321 323
238 238 225 225 236 200 175 169 169 166 160 159 152 137 129 119 109 89 84 34 333 96 120 124 129 45 20 81 88 100 115 128 157 144 145 162 140 187 89 249 232 191 163 219 306 12 268 290 311 315 311 319 321 320
235 235 231 227 229 185 169 164 164 162 158 145 138 135 128 123 113 86 86 48 352 86 105 138 65 51 38 80 89 83 98 94 109 125 108 124 68 250 216 251 131 187 187 174 285 27 272 286 300 301 311 315 314 310
232 228 224 223 230 182 166 156 159 155 146 140 135 132 128 105 72 70 118 127 139 102 95 110 128 67 11 71 62 48 7 95 15 104 139 174 167 127 221 250 150 180 232 261 259 286 281 259 305 312 309 310 313 307
232 223 233 221 203 169 159 151 151 147 139 133 130 128 113 107 125 68 21 50 85 89 73 115 95 161 7 94 135 349 151 135 57 93 154 177 154 233 246 202 174 208 283 279 241 205 275 290 294 303 312 315 318 320
228 219 224 210 182 155 151 149 148 143 136 131 128 116 84 41 61 120 128 70 54 64 108 97 148 161 18 82 49 130 349 133 13 198 129 254 174 230 215 176 194 199 221 280 279 284 288 279 301 312 319 320 315 322
217 220 218 192 160 155 148 148 145 137 136 130 106 82 80 49 128 146 28 46 28 8 41 85 273 106 21 128 94 175 27 82 190 74 308 242 260 284 215 199 182 211 226 204 292 309 305 302 311 314 314 308 306 312
214 213 205 165 154 150 145 146 140 133 123 54 88 83 78 263 297 27 75 66 359 78 33 84 73 123 23 141 119 359 102 58 215 116 275 211 249 196 168 196 215 219 208 211 230 258 261 267 286 300 307 311 311 316
222 208 171 152 149 146 148 143 137 114 132 140 112 106 115 80 65 97 54 105 223 157 144 120 107 92 107 58 115 60 104 225 213 354 227 240 201 173 193 223 228 207 208 237 228 255 268 270 275 285 292 305 309 310
215 200 152 149 150 145 144 137 120 124 112 111 72 90 133 93 143 184 177 188 171 170 164 153 125 99 123 77 76 118 132 142 274 220 247 249 157 196 208 223 233 218 218 242 269 266 274 278 286 285 296 304 310 308
215 160 147 148 143 139 130 135 137 133 96 94 141 128 178 176 227 163 147 118 102 121 126 114 97 91 94 80 95 118 72 247 151 247 237 202 207 202 205 210 193 233 216 256 269 277 282 292 295 298 293 298 301 299
167 144 143 143 139 136 139 137 132 43 70 94 126 139 177 107 71 105 105 106 77 124 116 108 88 89 64 99 24 113 160 228 228 229 213 193 191 209 231 220 228 241 245 255 251 265 282 290 290 295 294 300 293 294
140 139 146 137 139 136 131 114 65 68 66 77 86 111 128 105 134 122 108 109 129 120 105 69 111 85 91 124 136 207 161 223 214 210 203 166 207 217 226 229 231 229 233 249 255 250 271 276 275 289 298 290 294 297
128 112 139 135 132 118 110 77 83 52 80 73 72 74 84 74 109 117 109 117 142 124 129 140 107 150 120 92 211 208 215 208 190 199 199 205 211 221 215 226 235 225 232 239 252 255 257 276 280 281 299 311 305 303
117 136 133 127 117 101 56 38 82 76 77 63 104 85 52 48 105 98 96 131 148 123 141 166 127 146 180 175 215 221 219 223 224 218 196 202 222 235 217 237 229 223 233 240 239 263 260 274 286 293 294 302 306 307
138 135 128 130 130 98 91 51 33 90 67 94 93 68 73 79 53 77 96 90 68 94 120 112 119 185 207 207 204 174 193 205 188 175 217 222 224 220 230 228 235 228 232 233 236 250 266 254 266 286 291 302 309 326
125 125 135 132 48 88 79 45 40 96 117 106 74 66 68 74 92 94 98 101 102 101 94 189 212 204 188 199 189 175 178 165 155 155 248 217 203 199 220 217 228 235 242 247 247 258 249 261 247 266 280 276 320 313
114 119 91 62 60 59 79 102 69 75 108 80 112 75 78 61 82 86 102 21 46 219 233 213 224 229 177 54 192 167 159 174 180 182 176 193 192 208 226 228 235 231 236 249 257 269 291 259 269 276 278 284 299 299
115 145 97 68 88 76 78 13 89 91 70 99 98 74 111 123 126 115 42 165 234 233 204 180 215 179 171 204 192 208 191 179 153 207 227 228 221 217 235 235 214 243 248 252 250 261 268 260 241 247 250 282 315 302
123 87 63 68 88 59 82 312 87 27 116 148 142 98 80 118 123 285 230 232 261 230 197 209 172 159 200 145 168 194 196 174 202 217 231 234 239 247 253 251 235 248 264 266 237 244 248 240 268 279 265 306 299 303
54 57 62 63 71 109 132 80 92 104 104 119 110 108 168 152 166 94 250 242 237 150 198 186 160 127 91 141 220 210 190 193 219 239 217 220 243 251 232 253 245 237 243 253 235 238 228 240 252 293 287 292 294 292
71 17 65 60 66 122 110 129 114 97 102 140 117 144 173 166 147 195 236 259 214 207 185 172 195 212 193 204 223 224 190 175 190 227 231 211 220 299 256 250 260 262 221 215 230 229 225 214 228 258 286 287 286 293
85 339 88 154 133 133 163 131 156 141 131 133 123 105 155 134 129 236 225 215 207 182 181 181 173 180 229 215 170 180 193 166 146 187 245 187 194 203 219 241 288 209 115 177 204 230 224 218 241 273 286 301 322 342
113 113 68 21 83 113 98 76 78 120 135 158 163 161 136 149 226 245 256 218 174 194 157 138 168 182 163 145 146 109 102 122 106 115 92 117 136 198 187 200 218 235 172 217 223 225 232 237 254 271 287 300 301 306
95 150 144 159 92 17 119 102 146 182 164 161 130 166 169 186 206 222 189 128 128 97 79 67 62 88 106 104 114 121 103 102 97 95 107 82 61 296 242 240 252 273 116 250 231 228 227 238 253 267 283 293 309 309
77 42 105 74 76 55 67 127 156 106 50 177 131 168 216 227 240 170 139 137 111 117 135 128 82 80 86 84 76 67 130 150 129 116 169 261 312 233 169 260 291 291 295 304 304 277 221 229 230 250 257 288 309 299
132 330 94 75 79 78 304 338 62 319 321 33 334 345 360 337 335 124 113 117 150 184 171 133 135 163 157 152 152 137 183 196 191 155 175 213 221 163 191 254 262 259 258 272 289 308 321 32 37 65 52 312 305 294
30 78 79 58 88 266 282 322 304 309 25 33 0 101 162 305 315 197 179 160 143 132 130 130 155 191 143 160 157 146 249 206 200 208 199 181 203 231 238 236 239 246 247 253 261 258 274 290 264 274 280 294 309 339
32 57 117 106 120 232 30 49 6 63 354 41 360 1 354 29 296 258 185 140 127 167 216 176 166 201 195 170 158 166 19 137 157 188 201 217 235 240 242 246 232 232 242 245 245 238 233 242 253 253 266 274 288 295
69 64 55 104 93 309 254 95 31 38 30 36 357 355 273 247 222 261 211 214 182 194 189 189 172 150 161 157 158 161 130 143 193 204 222 232 239 251 233 220 216 213 211 225 235 230 231 231 241 249 254 263 276 280